User: anonymous   Login
Location: Unspecified
(0.0000°N, 0.0000°E)
Time: 22:27:21
(UTC+00:00)
Language:

STARLINK-3575 - Orbit

View from above orbital plane
View from above orbital plane
View from above satellite
View from above satellite

Ground track
Ground track

The orbit is defined by the following mean orbital elements,

1 51878U          26145.10697574 +.00000000 +00000-0 -85276-4 0 00002
2 51878  53.2132  26.0680 0001833  89.5352 270.5850 15.08851412    08
Epoch (UTC): 25 May 2026 02:34:02
Eccentricity: 0.0001833
inclination: 53.2132°
perigee height: 538 km
apogee height: 541 km
right ascension of ascending node: 26.0680°
argument of perigee: 89.5352°
revolutions per day: 15.08851412
mean anomaly at epoch: 270.5850°

The dashed part of the orbit path shows where the satellite is in the earth's shadow,  

DLR